This demonstration page uses our WeatherBlox Daily Observations layout. Learn more.

Left ArrowRight Arrow

47.50024, -111.30081

Hourly Observations for March 18, 2017

Temp ( °F °C ) Dew Point ( °F °C ) Humidity (%) Winds ( mph kmh ) Pressure ( in mb ) Visibility ( mi km ) Precip ( " mm )
12:53 am 00:53 Cloudy 51 10.6 25 -3.9 36 36 W 5 7 29.96 1015 10 16 0.00 0.00
1:53 am 01:53 Mostly Clear 48 8.9 30 -1.1 50 50 SW 13 20 29.95 1014 10 16 0.00 0.00
2:53 am 02:53 Mostly Cloudy 51 10.6 32 0 48 48 SW 14 22 29.93 1014 10 16 0.00 0.00
3:53 am 03:53 Cloudy 47 8.3 32 0 56 56 SW 5 7 29.91 1013 10 16 0.00 0.00
4:53 am 04:53 Mostly Clear 46 7.8 32 0 58 58 SE 6 9 29.89 1012 10 16 0.00 0.00
5:53 am 05:53 Mostly Clear 46 7.8 31 -0.6 56 56 Calm 29.88 1012 10 16 0.00 0.00
6:53 am 06:53 Clear 45 7.2 31 -0.6 58 58 Calm 29.88 1012 10 16 0.00 0.00
7:53 am 07:53 Sunny 43 6.1 30 -1.1 60 60 Calm 29.89 1012 10 16 0.00 0.00
8:53 am 08:53 Sunny 51 10.6 34 1.1 52 52 S 8 13 29.85 1011 10 16 0.00 0.00
9:53 am 09:53 Sunny 55 12.8 34 1.1 45 45 SSW 6 9 29.83 1010 10 16 0.00 0.00
10:53 am 10:53 Sunny 57 13.9 33 0.6 41 41 SW 7 11 29.81 1010 10 16 0.00 0.00
11:53 am 11:53 Sunny 62 16.7 32 0 32 32 SW 7 11 29.76 1008 10 16 0.00 0.00
12:53 pm 12:53 Sunny 67 19.4 32 0 27 27 SW 8 13 29.69 1005 10 16 0.00 0.00
1:53 pm 13:53 Sunny 72 22.2 31 -0.6 22 22 WSW 16 26 29.66 1004 10 16 0.00 0.00
2:53 pm 14:53 Sunny 74 23.3 31 -0.6 20 20 WSW 25 41 29.60 1002 10 16 0.00 0.00
3:53 pm 15:53 Partly Cloudy 70 21.1 31 -0.6 23 23 W 17 28 29.59 1002 10 16 0.00 0.00
4:53 pm 16:53 Cloudy 66 18.9 33 0.6 29 29 W 24 39 29.61 1003 10 16 0.00 0.00
5:53 pm 17:53 Mostly Cloudy 64 17.8 35 1.7 34 34 WSW 33 54 29.64 1004 10 16 0.00 0.00
6:53 pm 18:53 Partly Cloudy 63 17.2 34 1.1 34 34 SW 28 44 29.65 1004 10 16 0.00 0.00
7:53 pm 19:53 Clear 60 15.6 34 1.1 38 38 SSW 25 41 29.67 1005 10 16 0.00 0.00
8:53 pm 20:53 Clear 58 14.4 33 0.6 39 39 SW 20 31 29.68 1005 10 16 0.00 0.00
9:53 pm 21:53 Mostly Cloudy 57 13.9 34 1.1 42 42 WSW 12 19 29.70 1006 10 16 0.00 0.00
10:53 pm 22:53 Cloudy 53 11.7 37 2.8 55 55 W 15 24 29.74 1007 10 16 0.00 0.00
11:53 pm 23:53 Cloudy 54 12.2 35 1.7 49 49 SW 18 30 29.75 1008 10 16 0.00 0.00

Powered by AerisWeather